Hourly Data Report for September 10, 2017

All times are specified in Local Standard Time (LST). Add 1 hour to adjust for Daylight Saving Time where and when it is observed.

SATURNA ISLAND CS
BRITISH COLUMBIA

48°47'02.067" N
123°02'41.082" W
24.40 m
1017101
71473
WEZ

Download Data

Hourly Data (September 2017)
Hourly Data Report for September 10, 2017
Temp Definition
°C
Dew Point Temp Definition
°C
Rel Hum Definition
%
Wind Dir Definition
10's deg

Wind Spd Definition
km/h
Visibility Definition
km
Stn Press Definition
kPa
Hmdx Definition


Wind Chill Definition


Weather Definition


TIME
00:00 12.6 11.5 93 24 10   101.92     LegendNANA
01:00 12.1 11.1 93 23 15   101.94     LegendNANA
02:00 11.7 10.7 93 22 11   102.00     LegendNANA
03:00 11.7 10.8 94 20 14   102.03     LegendNANA
04:00 11.7 10.8 94 23 14   102.08     LegendNANA
05:00 11.9 10.9 94 23 11   102.11     LegendNANA
06:00 11.3 10.4 94 20 9   102.14     LegendNANA
07:00 11.8 11.0 95 16 7   102.22     LegendNANA
08:00 12.2 11.3 94 22 9   102.23     LegendNANA
09:00 12.0 11.1 94 23 15   102.27     LegendNANA
10:00 14.5 12.8 89 23 12   102.31     LegendNANA
11:00 16.3 12.4 78 22 10   102.32     LegendNANA
12:00 15.2 11.0 76 17 5   102.31     LegendNANA
13:00 15.9 11.8 77 11 4   102.30     LegendNANA
14:00 15.8 11.6 77 8 5   102.29     LegendNANA
15:00 17.1 11.5 70 13 4   102.24     LegendNANA
16:00 17.8 10.9 64 21 6   102.21     LegendNANA
17:00 16.6 10.7 68 23 4   102.19     LegendNANA
18:00 15.2 10.2 72 23 12   102.15     LegendNANA
19:00 15.7 10.8 72 23 13   102.14     LegendNANA
20:00 15.6 10.8 73 23 10   102.14     LegendNANA
21:00 14.7 10.5 76 22 9   102.13     LegendNANA
22:00 13.2 10.8 85 17 9   102.12     LegendNANA
23:00 13.2 10.8 86 21 3   102.10     LegendNANA

Notes on Data Quality.

Legend

  • E = Estimated
  • M = Missing
  • NA = Not Available
  • ‡ = Partner data that is not subject to review by the National Climate Archives
Date modified: